Location: Fonfreyde
(45.5478°N, 1.9946°E)
Time: 03:23:57
(UTC+00:00)

Daily predictions for brighter satellites

Satellite Brightness Start Highest point End
(mag) Time Altitude Azimuth Time Altitude Azimuth Time Altitude Azimuth
ATLAS CENTAUR R/B 3.9 00:07:30 15° WSW 00:12:17 71° NNW 00:27:10 10° NE
Cosmos 1825 3.5 00:13:02 26° ESE 00:13:29 27° E 00:16:42 10° NNE
Cosmos 1812 Rocket 4.0 00:14:35 10° NNW 00:18:44 45° W 00:19:25 41° WSW
Cosmos 1408 2.8 00:19:18 56° ESE 00:19:29 57° E 00:23:07 10° NNE
Cosmos 990 Rocket 4.2 00:15:06 10° NNW 00:20:18 66° ENE 00:22:37 32° SE
SL-16 R/B 2.6 00:19:56 28° SW 00:22:47 56° WNW 00:28:23 10° NNE
Cosmos 405 Rocket 3.3 00:23:36 40° ESE 00:23:53 41° E 00:27:22 10° NNE
Cosmos 2058 4.1 00:24:22 27° ESE 00:25:17 30° E 00:28:53 10° NNE
USA 229 DEB 3.5 00:22:35 36° SSW 00:25:22 75° SE 00:32:11 10° NE
USA 229 3.5 00:22:43 36° SSW 00:25:28 74° SE 00:32:17 10° NE
Cosmos 2237 Rocket 4.2 00:21:51 10° W 00:26:15 23° NW 00:30:40 10° N
Cosmos 2221 4.0 00:22:36 10° NNE 00:26:23 29° ENE 00:28:24 20° ESE
X-37B 2.6 00:28:47 20° E 00:28:47 20° E 00:29:56 10° E
Cosmos 1898 Rocket 3.7 00:28:22 10° NNW 00:33:37 69° ENE 00:36:10 30° SE
Cosmos 1937 Rocket 4.2 00:28:39 10° NNW 00:33:52 51° ENE 00:37:19 20° SE
NOSS 8 (F) 4.4 00:33:59 65° NW 00:33:59 65° NW 00:36:55 10° NNE
NOSS 3-1 (C) 3.5 00:31:10 27° WSW 00:34:10 65° NW 00:40:29 10° NE
Cosmos 2369 Rocket 2.2 00:30:16 10° NNW 00:36:02 85° ENE 00:38:58 30° SSE
Cosmos 1356 3.2 00:37:30 85° W 00:37:31 85° W 00:40:56 10° N
SJ 16-02 2.2 00:35:49 10° NW 00:39:44 32° WSW 00:40:01 32° WSW
GP-B 4.2 00:36:46 10° NNW 00:40:44 32° W 00:41:51 28° WSW
NOSS 2-3 (E) 4.0 00:42:31 33° WSW 00:44:12 56° NW 00:49:01 10° NNE
NOSS 3-1 (A) 3.2 00:42:41 36° SW 00:45:03 89° WNW 00:51:22 10° NE
USA 215 4.3 00:40:26 10° NE 00:46:33 44° NNW 00:52:40 10° W
Cosmos 1825 Rocket 4.0 00:45:41 40° SW 00:46:50 52° WNW 00:51:12 10° N
ATLAS 5 CENTAUR R/B 3.1 00:48:04 18° ESE 00:48:25 18° ESE 00:51:19 10° ENE
Cosmos 2263 4.2 00:43:59 10° NNW 00:49:42 81° ENE 00:53:06 25° SSE
CZ-4 R/B 3.8 00:47:20 10° NNE 00:52:00 69° ESE 00:53:33 41° S
Helios 1B rocket 4.3 00:49:27 10° NE 00:52:32 20° E 00:54:08 16° SE
USA 308 4.1 00:53:27 27° SE 00:53:27 27° SE 00:57:01 10° ENE
Cosmos 1633 4.4 00:53:22 19° ESE 00:54:22 21° E 00:57:07 10° NE
Cosmos 1932 4.4 00:48:41 10° NW 00:54:57 86° NE 01:00:03 16° SE
Meteor 2-2 Rocket 4.4 00:50:44 10° N 00:56:49 82° E 01:00:07 29° SSE
NOSS 8 (H) 4.4 01:00:24 57° WNW 01:00:37 60° NW 01:03:33 10° NNE
Helios 1A 2.9 01:00:06 45° SSE 01:01:22 89° WSW 01:05:36 10° NNW
Cosmos 1606 3.7 00:58:53 10° N 01:02:33 40° ENE 01:04:12 25° SE
Cosmos 468 Rocket 4.1 01:00:57 35° SW 01:03:04 66° WNW 01:08:17 10° NNE
SL-16 R/B 3.1 00:59:52 13° SE 01:05:12 56° ENE 01:11:14 10° N
Cosmos 372 Rocket 4.5 01:03:41 10° NNW 01:08:53 59° ENE 01:13:11 15° SE
USA 305 3.4 01:10:32 38° SSE 01:11:06 41° SE 01:15:07 10° ENE
Cosmos 858 Rocket 4.4 01:05:59 10° NNW 01:11:18 84° WSW 01:14:06 29° SSE
USA 290 3.7 01:11:15 25° ESE 01:11:39 26° ESE 01:14:23 10° NE
Cosmos 1953 Rocket 4.2 01:10:29 34° WSW 01:11:47 43° WNW 01:16:00 10° N
Cosmos 1092 Rocket 4.4 01:11:05 23° SSE 01:14:48 56° E 01:20:48 10° NNE
Lacrosse 4 Rocket 2.8 01:11:03 10° NNW 01:14:53 36° NE 01:18:38 10° ESE
Cosmos 2098 Rocket 3.4 01:15:09 33° S 01:17:39 87° E 01:22:09 10° N
Cosmos 1763 Rocket 4.0 01:15:44 29° WSW 01:18:04 50° WNW 01:23:04 10° NNE
BREEZE-M R/B 3.1 01:18:12 35° SSE 01:18:41 37° SE 01:22:44 10° ENE
USA 267 4.0 01:19:19 28° SSW 01:20:47 31° SW 01:26:29 10° WNW
Cosmos 1437 Rocket 2.9 01:17:45 10° NNW 01:21:33 54° W 01:22:18 45° SW
Resurs 1-4 Rocket 2.4 01:16:17 10° NNE 01:21:34 62° ESE 01:24:23 28° S
Cosmos 1892 4.4 01:21:02 20° W 01:22:02 22° WNW 01:25:06 10° NNW
OE (NEXTSAT) 4.2 01:22:34 46° WSW 01:23:30 86° SSE 01:26:57 10° E
SL-4 R/B 3.6 01:21:44 10° WNW 01:25:07 30° N 01:28:19 10° ENE
Cosmos 1943 Rocket 3.6 01:24:55 10° WNW 01:28:42 19° W 01:29:32 19° WSW
NOSS 2-2 (D) 3.5 01:30:21 38° SSE 01:31:02 44° ESE 01:34:30 10° NE
Cosmos 1842 Rocket 3.6 01:27:24 10° NNW 01:31:41 59° W 01:33:14 36° SSW
NPP 3.9 01:27:24 10° NNE 01:32:46 62° ESE 01:35:57 24° S
ADEOS II 3.2 01:28:15 10° NNE 01:33:08 37° E 01:36:50 16° SSE
USA 306 3.0 01:32:05 38° SSW 01:33:26 59° SE 01:37:37 10° ENE
Cosmos 921 Rocket 2.8 01:32:38 37° SSW 01:34:13 89° WNW 01:38:26 10° NNE
Lacrosse 5 rocket 4.1 01:31:47 10° NNW 01:34:19 18° NNE 01:36:52 10° ENE
Exosat Rocket 4.4 01:30:27 22° SW 01:34:21 48° WNW 01:39:27 10° NNE
Meteor 2-8 Rocket 4.5 01:29:03 10° NNW 01:35:09 70° W 01:38:53 25° S
FALCON 9 DEB 3.3 01:32:46 10° NW 01:36:10 71° NNE 01:39:33 10° ESE
Cosmos 1943 3.5 01:33:25 26° SW 01:36:32 58° WNW 01:42:09 10° NNE
MOZ.5/SAFIR/RUBIN 5/SL-8 4.2 01:38:05 31° SSW 01:39:54 46° W 01:44:30 10° NNW
CZ-2D R/B 2.0 01:35:04 10° NNE 01:40:19 87° ESE 01:43:15 27° SSW
Cosmos 1603 4.3 01:41:52 22° WSW 01:45:19 48° WNW 01:50:48 10° NNE
Cosmos 2151 3.2 01:44:56 26° S 01:47:12 65° E 01:51:22 10° NNE
IDEFIX/ARIANE 42P 4.2 01:43:00 10° NE 01:47:26 27° E 01:51:49 10° SSE
Cosmos 1825 3.8 01:47:48 19° W 01:48:56 21° WNW 01:51:55 10° NNW
Cosmos 1076 Rocket 3.6 01:49:45 31° SSW 01:51:39 63° W 01:55:52 10° N
AQUA 3.9 01:47:35 10° NNE 01:52:22 75° ESE 01:55:17 24° S
Cosmos 1437 2.5 01:52:45 10° NNW 01:55:30 53° W 01:55:51 48° SW
Cosmos 540 Rocket 4.2 01:55:00 21° WSW 01:57:57 41° WNW 02:02:48 10° N
Cosmos 1242 Rocket 3.4 01:55:57 10° NNW 01:59:12 33° W 02:00:05 29° SW
DELTA 2 R/B (1) 3.8 01:57:41 19° WSW 02:01:17 46° S 02:06:34 10° ESE
Cosmos 2058 4.5 02:00:33 18° WSW 02:02:12 23° WNW 02:05:30 10° NNW
X-37B 0.4 02:01:04 17° W 02:03:22 71° SSW 02:06:32 10° ESE
Cosmos 2221 3.8 02:00:17 10° NNW 02:03:49 25° W 02:05:13 21° WSW
BREEZE-M DEB (TANK) 2.7 02:03:20 10° WNW 02:05:48 39° N 02:08:03 10° E
Cosmos 841 Rocket 4.2 02:03:07 20° WSW 02:06:16 41° WNW 02:11:09 10° N
IRS-1D 4.0 02:02:06 10° NNE 02:07:09 56° E 02:11:14 15° S
NOSS 2-2 (E) 3.5 02:08:02 24° WSW 02:09:52 52° NW 02:13:37 10° NNE
Cosmos 1553 Rocket 4.2 02:04:25 10° N 02:10:45 76° E 02:16:56 10° SSE
Cosmos 2292 Rocket 2.9 02:09:52 24° S 02:11:28 61° E 02:14:24 10° NNE
FALCON 9 DEB 4.3 02:12:03 10° NW 02:15:03 41° NNE 02:18:02 10° E
GPS 2-04 Rocket1 4.1 02:15:42 19° S 02:15:47 19° S 02:18:37 10° SE
USA 307 3.0 02:14:11 19° WSW 02:17:09 76° NNW 02:21:25 10° NE
Cosmos 1782 3.2 02:13:19 10° N 02:17:18 62° E 02:21:16 10° SSE
USA 281 3.8 02:11:20 10° SE 02:17:47 62° ENE 02:24:15 10° NNW
Cosmos 1271 Rocket 3.9 02:15:37 10° N 02:19:10 40° ENE 02:22:43 10° SE
Cosmos 2369 Rocket 3.9 02:16:08 10° WNW 02:19:15 15° W 02:20:43 14° WSW
Cosmos 2026 Rocket 4.2 02:16:00 19° SSW 02:20:33 60° WNW 02:26:52 10° N
NOSS 2-2 (C) 3.6 02:21:26 20° WSW 02:23:34 49° NW 02:27:13 10° NNE
CZ-4C R/B 4.0 02:21:38 10° SSE 02:24:57 47° ENE 02:28:19 10° N
Aureole 3 Rocket 4.2 02:22:01 10° NNW 02:25:38 31° W 02:28:38 18° SW
ERBS 3.1 02:24:39 21° S 02:26:16 37° SE 02:29:18 10° ENE
Helios 1B rocket 3.3 02:24:06 10° N 02:27:54 37° WNW 02:30:26 18° SW
Cosmos 1633 4.0 02:27:25 17° WSW 02:29:00 23° WNW 02:31:54 10° NNW
Cosmos 1328 Rocket 4.0 02:26:58 10° N 02:31:18 61° E 02:35:38 10° SSE
FALCON 9 DEB 3.1 02:28:59 10° NW 02:32:04 69° NNE 02:35:07 10° ESE
ATLAS 5 CENTAUR R/B 2.0 02:29:34 16° WSW 02:32:30 48° NW 02:36:51 10° NNE
SL-19 R/B 4.4 02:27:25 10° N 02:32:33 56° WNW 02:36:50 16° SW
USA 308 3.3 02:29:31 14° WSW 02:33:06 61° NNW 02:37:21 10° NE
Cosmos 2298 Rocket 4.1 02:28:53 10° NNW 02:34:09 62° WSW 02:39:23 10° S
SeaSat 1 3.2 02:31:50 10° NE 02:36:35 46° ESE 02:41:17 10° S
FALCON 9 DEB 3.4 02:35:50 10° NW 02:38:56 62° NNE 02:42:01 10° ESE
ADEOS Rocket 3.5 02:33:24 10° S 02:40:36 57° W 02:47:10 10° NNW
Meteor 2-21 4.5 02:36:14 12° S 02:42:05 81° W 02:48:18 10° N
FALCON 9 DEB 2.9 02:39:14 10° WNW 02:42:21 79° NNE 02:45:25 10° ESE
Cosmos 1933 4.1 02:40:42 10° NNW 02:44:27 36° W 02:47:30 14° SSW
IRIDIUM 104 4.5 02:39:46 10° N 02:44:55 60° W 02:50:01 10° SSW
Cosmos 2150 Rocket 4.2 02:40:37 10° NNW 02:45:40 52° WSW 02:50:45 10° S
USA 290 4.2 02:44:01 11° W 02:46:04 18° WNW 02:48:25 10° NNW
Cosmos 1833 Rocket 4.2 02:42:15 10° SSE 02:47:07 31° ESE 02:52:01 10° NE
SL-16 R/B 3.6 02:44:57 14° SW 02:49:07 26° W 02:54:14 10° NW
Meteor 1-28 Rocket 3.5 02:45:49 11° S 02:49:17 46° W 02:52:58 10° NNW
DELTA 2 DEB (DPAF) 4.4 02:45:58 10° S 02:50:16 48° W 02:54:35 10° NNW
Tianhe-1 3.5 02:49:46 10° S 02:51:01 12° SSE 02:52:14 10° SE
USA 305 3.7 02:46:55 10° W 02:51:02 46° NNW 02:55:09 10° NE
IRS-P3 4.5 02:46:30 10° NNE 02:51:49 66° ESE 02:57:06 10° S
Lacrosse 4 Rocket 2.5 02:50:06 10° WNW 02:53:20 23° WSW 02:56:19 11° SSW
Cosmos 1125 Rocket 3.7 02:48:27 10° NNW 02:53:35 55° WSW 02:58:42 10° S
Cosmos 1151 Rocket 3.1 02:50:45 10° NNW 02:54:56 57° W 02:59:06 10° S
Cosmos 2266 Rocket 4.0 02:50:08 10° S 02:56:15 84° E 03:02:20 10° N
Meteor 1-29 4.3 02:55:06 10° N 02:57:59 26° WNW 03:00:31 12° WSW
CZ-4B R/B 4.1 02:54:21 10° NNE 02:59:35 59° E 03:04:42 10° S
ARIANE 5 R/B 2.9 02:55:46 10° NNE 03:00:44 62° ESE 03:05:42 10° S
Resurs 1-4 Rocket 3.8 02:57:03 10° NNW 03:00:55 21° WNW 03:04:48 10° WSW
OE (NEXTSAT) 4.3 02:57:34 10° W 03:01:02 88° NNE 03:04:29 10° E
CZ-4C R/B 2.4 02:56:33 10° SSW 03:01:13 58° ESE 03:06:52 10° NE
Cosmos 1515 Rocket 3.8 02:58:02 10° N 03:02:29 74° E 03:06:54 10° SSE
Cosmos 1766 Rocket 3.9 02:59:09 11° SSW 03:03:20 52° WNW 03:07:43 10° N
SL-4 R/B 2.5 03:01:38 10° WNW 03:05:10 52° NNE 03:08:33 10° E
Cosmos 1408 Rocket 3.7 03:01:28 10° S 03:05:55 86° E 03:10:25 10° N
COSMOS 2441 4.4 03:03:56 10° NNE 03:08:48 86° ESE 03:13:36 10° SSW
USA 238 DEB 4.4 03:02:11 10° NW 03:09:25 68° NE 03:16:58 10° SE
USA 238 4.4 03:02:18 10° NW 03:09:31 68° NE 03:17:04 10° SE
CENTAUR R/B 3.7 03:01:54 10° NW 03:09:58 69° NE 03:18:50 10° SE
Cosmos 2082 Rocket 4.2 03:05:43 10° SSE 03:10:04 24° ESE 03:14:26 10° NE
ADEOS II 3.1 03:08:05 10° N 03:12:43 32° WNW 03:17:21 10° SW
Cosmos 1862 3.3 03:08:51 10° SSW 03:12:53 77° W 03:16:57 10° N
USA 306 4.1 03:09:34 10° W 03:13:33 38° NNW 03:17:33 10° NE
Lacrosse 5 rocket 1.6 03:10:23 10° NW 03:13:58 64° NE 03:17:40 10° ESE
Okean 3 Rocket 4.2 03:10:06 10° SSW 03:14:14 41° WNW 03:18:25 10° N
CZ-2D R/B 4.1 03:16:46 10° NNW 03:19:39 15° WNW 03:22:32 10° W
ASTEX 1 3.9 03:19:22 10° SSW 03:24:04 42° W 03:28:44 10° NNW
Cosmos 1655 Rocket 4.3 03:18:13 10° SSW 03:24:17 54° WNW 03:30:25 10° N
IDEFIX/ARIANE 42P 3.2 03:22:13 10° N 03:27:09 43° WNW 03:32:03 10° SW
